Vorticity
10 10 10 12 13 13 11 9 9 10 12 11 11 9 7 6 5 4 3 4 4 6 8 10 10 11 13
11 10 11 11 13 12 10 10 9 11 10 7 5 6 7 8 10 11 11 14 11 9 7 7 7 8 18
11 11 12 14 13 10 10 10 12 11 10 9 8 8 9 10 10 10 12 6 6 3 2 2 1 2 3
11 12 13 16 13 11 9 10 11 10 9 9 9 9 9 9 9 9 7 8 6 4 3 3 3 4 2
11 12 14 15 12 10 10 10 9 9 9 9 10 13 14 14 14 14 13 13 12 11 10 7 5 5 4
11 12 15 14 12 10 10 10 9 9 10 11 11 8 8 9 11 11 13 14 15 15 13 12 10 9 7
11 13 14 15 12 10 9 10 10 11 10 8 10 12 12 11 9 8 9 10 11 12 14 16 16 13 11
11 14 14 12 10 9 10 9 11 10 11 14 11 7 7 8 9 11 12 14 17 18 15 13 13 15 14
12 16 14 11 10 9 10 9 10 11 13 6 5 9 6 6 8 13 15 14 16 21 22 22 19 16 15
14 16 11 10 9 8 9 8 10 12 5 4 8 9 9 7 6 11 10 12 14 18 19 20 24 24 20
15 15 11 10 9 9 9 10 12 5 6 7 10 10 7 9 6 8 10 11 13 15 15 15 16 18 23
17 13 10 10 9 10 10 13 7 5 6 9 12 10 8 9 10 6 11 15 16 16 17 17 16 15 16
18 10 11 10 10 11 14 11 5 8 6 9 9 9 9 10 9 11 15 12 14 15 19 17 18 21 18
12 9 11 9 10 10 14 8 4 11 6 5 7 7 9 12 9 12 15 10 15 14 14 16 19 17 16
8 11 11 11 11 12 15 9 4 6 11 11 7 7 9 10 10 13 11 14 13 11 8 10 15 15 16
10 12 10 10 11 13 13 7 8 9 8 9 11 11 9 8 12 12 14 16 13 9 7 3 8 11 11
11 11 11 9 11 13 11 7 8 9 10 9 11 12 7 2 18 17 14 13 13 13 12 11 10 14 13
Height
3015 3010 3007 3004 3002 3000 2998 2997 2995 2994 2992 2990 2990 2989 2988 2988 2987 2986 2986 2986 2985 2985 2985 2986 2988 2988 2991
3009 3003 2998 2994 2992 2991 2990 2989 2988 2986 2985 2984 2984 2982 2981 2980 2979 2978 2978 2977 2977 2976 2976 2977 2977 2979 2979
3000 2995 2991 2987 2984 2982 2981 2981 2979 2978 2976 2975 2973 2973 2971 2969 2968 2967 2967 2967 2967 2967 2967 2967 2967 2968 2968
2989 2986 2982 2979 2975 2973 2974 2972 2972 2970 2967 2966 2964 2962 2960 2958 2957 2956 2957 2957 2957 2956 2957 2957 2957 2958 2958
2978 2975 2973 2969 2966 2964 2964 2963 2963 2960 2957 2957 2955 2953 2950 2948 2947 2945 2944 2943 2942 2943 2943 2942 2943 2944 2945
2969 2966 2963 2960 2957 2955 2954 2953 2953 2950 2947 2949 2943 2943 2941 2939 2937 2934 2932 2931 2930 2929 2928 2927 2927 2928 2928
2959 2957 2953 2951 2948 2947 2945 2943 2943 2941 2935 2937 2934 2933 2930 2928 2926 2924 2922 2919 2916 2913 2911 2911 2910 2910 2910
2950 2948 2944 2941 2937 2936 2936 2933 2932 2931 2926 2925 2924 2922 2920 2918 2915 2911 2908 2906 2902 2899 2896 2893 2892 2891 2891
2942 2939 2936 2933 2929 2926 2925 2922 2921 2920 2918 2912 2911 2909 2908 2906 2903 2900 2896 2891 2887 2884 2881 2878 2875 2872 2872
2934 2930 2927 2925 2922 2918 2916 2913 2910 2909 2910 2905 2901 2896 2893 2893 2890 2886 2882 2878 2874 2870 2865 2862 2860 2857 2855
2925 2922 2919 2917 2914 2911 2907 2904 2901 2899 2898 2893 2890 2886 2881 2877 2878 2875 2871 2867 2862 2858 2854 2849 2846 2842 2839
2914 2912 2910 2907 2905 2903 2900 2896 2893 2893 2892 2887 2881 2877 2872 2868 2865 2864 2860 2855 2848 2845 2840 2836 2833 2829 2826
2904 2902 2900 2898 2896 2894 2891 2888 2887 2886 2882 2876 2870 2865 2861 2857 2854 2852 2847 2843 2837 2831 2827 2822 2818 2815 2813
2894 2892 2890 2889 2887 2884 2882 2880 2878 2877 2874 2869 2862 2855 2851 2848 2842 2838 2835 2828 2825 2819 2813 2810 2807 2803 2800
2884 2883 2881 2880 2878 2875 2873 2871 2868 2867 2865 2861 2854 2847 2841 2837 2832 2827 2822 2818 2814 2808 2802 2798 2796 2792 2789
2875 2874 2872 2871 2868 2866 2863 2861 2858 2856 2852 2848 2842 2835 2831 2827 2824 2816 2812 2807 2803 2797 2792 2786 2784 2781 2777
2867 2866 2864 2862 2859 2857 2854 2851 2848 2844 2842 2837 2832 2826 2816 2810 2811 2806 2799 2796 2789 2784 2780 2775 2769 2769 2764